This demonstration page uses our WeatherBlox Daily Observations layout. Learn more.

Left ArrowRight Arrow

47.50024, -111.30081

Hourly Observations for December 6, 2022

Temp ( °F °C ) Dew Point ( °F °C ) Humidity (%) Winds ( mph kmh ) Pressure ( in mb ) Visibility ( mi km ) Precip ( " mm )
12:38 am 00:38 Cloudy with Light Snow 14 -10 12 -11.1 92 92 N 14 22 30.09 1019 2 2 0.01 0.25
1:02 am 01:02 Partly Cloudy with Isolated Snow Showers 12 -11.1 10 -12.2 92 92 NNW 13 20 30.11 1020 1 1 0.01 0.13
1:53 am 01:53 Cloudy with Light Snow 10 -12.2 8 -13.3 91 91 NNW 15 24 30.03 1017 1 1 0.02 0.51
2:53 am 02:53 Cloudy with Light Snow 9 -12.8 7 -13.9 91 91 NNW 12 19 30.06 1018 1 2 0.02 0.51
3:04 am 03:04 Cloudy with Light Snow 8 -13.3 7 -13.9 95 95 NNW 8 13 30.18 1022 1 2 0.01 0.13
3:27 am 03:27 Cloudy with Light Snow 8 -13.3 6 -14.4 91 91 N 9 15 30.18 1022 2 3 0.01 0.13
3:53 am 03:53 Cloudy with Light Snow 8 -13.3 6 -14.4 91 91 N 6 9 30.06 1018 2 3 0.01 0.13
4:11 am 04:11 Cloudy with Light Snow 8 -13.3 6 -14.4 91 91 N 3 6 30.16 1021 2 2 0.01 0.25
4:53 am 04:53 Cloudy with Light Snow 7 -13.9 5 -15 91 91 NE 3 6 30.04 1017 2 3 0.01 0.25
5:19 am 05:19 Cloudy with Light Snow 7 -13.9 5 -15 91 91 NE 5 7 30.14 1021 3 4 0.01 0.13
5:46 am 05:46 Cloudy with Mist and Fog 7 -13.9 4 -15.6 87 87 NE 5 7 30.14 1021 3 5 0.01 0.13
5:53 am 05:53 Cloudy with Mist and Fog 7 -13.9 4 -15.6 87 87 NE 5 7 30.02 1017 6 10 0.01 0.13
6:53 am 06:53 Cloudy 7 -13.9 5 -15 91 91 ENE 9 15 30.00 1016 10 16 0.01 0.13
7:09 am 07:09 Cloudy with Light Snow 7 -13.9 5 -15 91 91 ENE 12 19 30.12 1020 3 5 0.01 0.13
7:53 am 07:53 Cloudy with Light Snow 5 -15 3 -16.1 91 91 NE 16 26 30.02 1017 3 5 0.01 0.13
8:43 am 08:43 Cloudy with Blowing Snow 3 -16.1 0 -17.8 87 87 ENE 17 28 30.19 1022 3 4 0.01 0.13
8:53 am 08:53 Cloudy with Mist and Fog 2 -16.7 0 -17.8 91 91 NE 16 26 30.06 1018 2 2 0.01 0.13
9:03 am 09:03 Cloudy with Mist and Fog 2 -16.7 -1 -18.3 87 87 ENE 16 26 30.21 1023 1 2 0.01 0.13
9:20 am 09:20 Cloudy with Light Snow 2 -16.7 -1 -18.3 87 87 ENE 14 22 30.22 1023 1 2 0.01 0.13
9:28 am 09:28 Cloudy with Mist and Fog 2 -16.7 -1 -18.3 87 87 ENE 15 24 30.22 1023 2 3 0.01 0.13
9:42 am 09:42 Cloudy with Mist and Fog 2 -16.7 -1 -18.3 87 87 ENE 17 28 30.23 1024 3 5 0.01 0.13
9:53 am 09:53 Cloudy with Mist and Fog 2 -16.7 -1 -18.3 87 87 NE 15 24 30.08 1019 3 5 0.01 0.13
10:19 am 10:19 Cloudy with Light Snow 2 -16.7 -1 -18.3 87 87 NE 13 20 30.24 1024 2 3 0.01 0.13
10:36 am 10:36 Cloudy with Light Snow 1 -17.2 -2 -18.9 87 87 NE 15 24 30.26 1025 3 5 0.01 0.13
10:53 am 10:53 Cloudy with Light Snow 2 -16.7 -2 -18.9 83 83 NE 13 20 30.09 1019 3 5 0.01 0.13
11:01 am 11:01 Cloudy with Light Snow 2 -16.7 -2 -18.9 83 83 NE 12 19 30.24 1024 2 3 0.01 0.13
11:24 am 11:24 Cloudy with Light Snow 1 -17.2 -2 -18.9 87 87 ENE 13 20 30.26 1025 3 5 0.01 0.25
11:53 am 11:53 Cloudy with Light Snow 2 -16.7 -2 -18.9 83 83 ENE 12 19 30.09 1019 3 5 0.01 0.25
12:53 pm 12:53 Cloudy 1 -17.2 -4 -20 79 79 NE 10 17 30.10 1019 8 13 0.01 0.13
1:53 pm 13:53 Cloudy with Mist and Fog 0 -17.8 -4 -20 83 83 ENE 8 13 30.10 1019 6 10 0.00 0.00
2:53 pm 14:53 Cloudy 0 -17.8 -4 -20 83 83 NE 8 13 30.09 1019 8 13 0.00 0.00
3:53 pm 15:53 Partly Cloudy 0 -17.8 -4 -20 83 83 NE 9 15 30.08 1019 9 14 0.00 0.00
4:35 pm 16:35 Mostly Cloudy with Mist and Fog -2 -18.9 -5 -20.6 86 86 NE 8 13 30.24 1024 6 10 0.00 0.00
4:44 pm 16:44 Mostly Cloudy -2 -18.9 -5 -20.6 86 86 NE 8 13 30.26 1025 10 16 0.00 0.00
4:53 pm 16:53 Mostly Cloudy with Mist and Fog -2 -18.9 -5 -20.6 86 86 NE 9 15 30.26 1025 5 8 0.00 0.00
5:53 pm 17:53 Cloudy -1 -18.3 -4 -20 86 86 ENE 3 6 30.11 1020 10 16 0.00 0.00
6:11 pm 18:11 Cloudy -4 -20 -7 -21.7 86 86 NNE 6 9 30.30 1026 10 16 0.00 0.00
6:53 pm 18:53 Mostly Clear -7 -21.7 -8 -22.2 96 96 NNE 7 11 30.15 1021 10 16 0.00 0.00
7:53 pm 19:53 Clear -8 -22.2 -10 -23.3 91 91 Calm 30.16 1021 10 16 0.00 0.00
8:53 pm 20:53 Clear -7 -21.7 -9 -22.8 91 91 Calm 30.19 1022 10 16 0.00 0.00
9:25 pm 21:25 Partly Cloudy -6 -21.1 -8 -22.2 91 91 N 3 6 30.35 1028 10 16 0.00 0.00
9:53 pm 21:53 Clear -8 -22.2 -9 -22.8 95 95 Calm 30.19 1022 10 16 0.00 0.00
10:53 pm 22:53 Clear -8 -22.2 -11 -23.9 86 86 Calm 30.19 1023 10 16 0.00 0.00
11:53 pm 23:53 Clear -9 -22.8 -11 -23.9 91 91 Calm 30.19 1022 10 16 0.00 0.00

Powered by AerisWeather